Location: Strawberry
(45.6646°N, 111.9596°W)
Time: 20:37:22
(UTC+00:00)

Envisat - Pass Details

Date: 22 August 2022
Orbit: 764 x 765 km, 98.2° (Epoch: 27 September)

Event Time Altitude Azimuth Distance (km) Brightness Sun altitude
Rises 11:45:45 0° 15° (NNE) 3,242 6.9 -9.1°
Reaches altitude 10° 11:48:06 10° 19° (NNE) 2,311 6.2 -8.7°
Maximum altitude 11:53:10 67° 101° (ESE) 832 3.4 -7.9°
Drops below altitude 10° 11:58:12 10° 185° (S) 2,293 5.2 -7.1°
Sets 12:00:30 0° 188° (S) 3,215 5.9 -6.8°
